Mojave, CA

2:29 AM PDT on October 16, 2019 (GMT -0700)
Mojave

Weather History for KMHV - May, 2019

Change the Weather History Date:

Friday, May 17, 2019

  Actual Average Record
Temperature  
Mean Temperature 53 °F -  
Max Temperature 60 °F 83 °F 95 °F (1967)
Min Temperature 46 °F 54 °F 36 °F (1974)
Degree Days  
Heating Degree Days 12    
Growing Degree Days 3 (Base 50)    
Moisture  
Dew Point 37 °F    
Average Humidity 57    
Maximum Humidity 81    
Minimum Humidity 42    
Precipitation  
Precipitation 0.00 in - - ()
Sea Level Pressure  
Sea Level Pressure 29.95 in    
Wind  
Wind Speed 26 mph (West)    
Max Wind Speed 46 mph    
Max Gust Speed 56 mph    
Visibility 10 miles    
Events      
Averages and records for this station are not official NWS values.
T = Trace of Precipitation, MM = Missing Value Source: NWS Daily Summary

Daily Weather History Graph

Daily Weather History Graph

Search for Another Location

Airport or City:

Astronomy

May. 17, 2019 Rise Set
Actual Time 5:47 AM PDT 7:50 PM PDT
Civil Twilight 5:19 AM PDT 8:19 PM PDT
Nautical Twilight 4:44 AM PDT 8:53 PM PDT
Astronomical Twilight 4:08 AM PDT 9:30 PM PDT
Moon 6:48 PM PDT (5/17) 5:15 AM PDT (5/17)
Length of Visible Light 14h 59m
Length of Day
14h 03m
Waxing Gibbous, 99% of the Moon is Illuminated
May 17
Waxing Gibbous
May 18
Full
May 26
Last Quarter
Jun 3
New
Jun 9
First Quarter

Hourly Weather History & Observations

Time (PDT) Temp. Windchill Dew Point Humidity Pressure Visibility Wind Dir Wind Speed Gust Speed Precip Events Conditions
12:00 AM 50.0 °F - 41.0 °F 71% 29.95 in 10.0 mi WSW 16.1 mph - N/A   Overcast
12:20 AM 48.2 °F - 39.2 °F 71% 29.95 in 10.0 mi WSW 17.3 mph - N/A   Mostly Cloudy
12:40 AM 48.2 °F - 39.2 °F 71% 29.95 in 10.0 mi WSW 15.0 mph 21.9 mph N/A   Mostly Cloudy
1:00 AM 48.2 °F - 39.2 °F 71% 29.94 in 10.0 mi West 17.3 mph - N/A   Partly Cloudy
1:20 AM 50.0 °F - 39.2 °F 66% 29.93 in 10.0 mi West 23.0 mph 32.2 mph N/A   Clear
1:40 AM 50.0 °F - 39.2 °F 66% 29.94 in 10.0 mi WNW 19.6 mph 26.5 mph N/A   Mostly Cloudy
2:00 AM 50.0 °F - 37.4 °F 62% 29.93 in 10.0 mi WNW 29.9 mph 35.7 mph N/A   Mostly Cloudy
2:20 AM 48.2 °F - 39.2 °F 71% 29.93 in 10.0 mi West 33.4 mph - N/A   Mostly Cloudy
2:40 AM 46.4 °F 37.4 °F 41.0 °F 81% 29.94 in 10.0 mi West 28.8 mph 35.7 mph N/A   Mostly Cloudy
3:00 AM 46.4 °F 37.9 °F 39.2 °F 76% 29.95 in 10.0 mi West 25.3 mph - N/A   Overcast
3:20 AM 48.2 °F - 37.4 °F 66% 29.97 in 10.0 mi West 24.2 mph 35.7 mph N/A   Overcast
3:40 AM 48.2 °F - 37.4 °F 66% 29.97 in 10.0 mi West 17.3 mph 25.3 mph N/A   Overcast
4:00 AM 48.2 °F - 37.4 °F 66% 29.97 in 10.0 mi WSW 23.0 mph 33.4 mph N/A   Overcast
4:20 AM 48.2 °F - 35.6 °F 62% 29.96 in 10.0 mi WSW 21.9 mph 32.2 mph N/A   Overcast
4:40 AM 48.2 °F - 35.6 °F 62% 29.96 in 10.0 mi WSW 21.9 mph 29.9 mph N/A   Overcast
5:00 AM 48.2 °F - 35.6 °F 62% 29.95 in 10.0 mi West 21.9 mph 28.8 mph N/A   Overcast
5:20 AM 48.2 °F - 35.6 °F 62% 29.95 in 10.0 mi West 20.7 mph 29.9 mph N/A   Overcast
5:40 AM 48.2 °F - 35.6 °F 62% 29.94 in 10.0 mi WSW 29.9 mph 39.1 mph N/A   Overcast
6:00 AM 48.2 °F - 35.6 °F 62% 29.95 in 10.0 mi WSW 25.3 mph 38.0 mph N/A   Overcast
6:20 AM 46.4 °F 37.9 °F 35.6 °F 66% 29.97 in 10.0 mi WSW 25.3 mph 39.1 mph N/A   Overcast
6:40 AM 48.2 °F - 35.6 °F 62% 29.97 in 10.0 mi WSW 29.9 mph 38.0 mph N/A   Overcast
7:00 AM 48.2 °F - 35.6 °F 62% 29.97 in 10.0 mi West 25.3 mph 36.8 mph N/A   Overcast
7:20 AM 48.2 °F - 35.6 °F 62% 29.97 in 10.0 mi West 25.3 mph 39.1 mph N/A   Overcast
7:40 AM 48.2 °F - 35.6 °F 62% 29.98 in 10.0 mi West 20.7 mph 41.4 mph N/A   Mostly Cloudy
8:00 AM 48.2 °F - 35.6 °F 62% 29.97 in 10.0 mi WSW 32.2 mph 40.3 mph N/A   Scattered Clouds
8:20 AM 48.2 °F - 35.6 °F 62% 29.97 in 10.0 mi West 33.4 mph - N/A   Partly Cloudy
8:40 AM 50.0 °F - 33.8 °F 54% 29.96 in 10.0 mi West 33.4 mph 41.4 mph N/A   Clear
9:00 AM 50.0 °F - 35.6 °F 58% 29.97 in 10.0 mi West 38.0 mph 49.5 mph N/A   Clear
9:20 AM 50.0 °F - 35.6 °F 58% 29.99 in 10.0 mi West 28.8 mph 41.4 mph N/A   Clear
9:40 AM 50.0 °F - 35.6 °F 58% 30.00 in 10.0 mi West 19.6 mph 33.4 mph N/A   Partly Cloudy
10:00 AM 51.8 °F - 35.6 °F 54% 30.01 in 10.0 mi West 28.8 mph 36.8 mph N/A   Scattered Clouds
10:20 AM 51.8 °F - 35.6 °F 54% 30.00 in 10.0 mi West 26.5 mph 38.0 mph N/A   Scattered Clouds
10:40 AM 51.8 °F - 35.6 °F 54% 30.01 in 10.0 mi WSW 26.5 mph 34.5 mph N/A   Clear
11:00 AM 50.0 °F - 35.6 °F 58% 30.01 in 10.0 mi West 31.1 mph 40.3 mph N/A   Clear
11:20 AM 51.8 °F - 35.6 °F 54% 30.01 in 10.0 mi West 31.1 mph 39.1 mph N/A   Clear
11:40 AM 51.8 °F - 33.8 °F 50% 30.02 in 10.0 mi West 27.6 mph 38.0 mph N/A   Clear
12:00 PM 51.8 °F - 35.6 °F 54% 30.03 in 10.0 mi West 26.5 mph 36.8 mph N/A   Clear
12:20 PM 53.6 °F - 35.6 °F 51% 30.02 in 10.0 mi West 29.9 mph 35.7 mph N/A   Clear
12:40 PM 55.4 °F - 35.6 °F 47% 29.98 in 10.0 mi West 38.0 mph 47.2 mph N/A   Clear
1:00 PM 53.6 °F - 35.6 °F 51% 29.97 in 10.0 mi West 41.4 mph 51.8 mph N/A   Clear
1:20 PM 55.4 °F - 35.6 °F 47% 29.99 in 10.0 mi West 29.9 mph 51.8 mph N/A   Clear
1:40 PM 57.2 °F - 35.6 °F 44% 29.98 in 10.0 mi WNW 35.7 mph 44.9 mph N/A   Clear
2:00 PM 57.2 °F - 37.4 °F 48% 29.98 in 10.0 mi WNW 32.2 mph 48.3 mph N/A   Clear
2:20 PM 57.2 °F - 37.4 °F 48% 29.96 in 10.0 mi West 34.5 mph - N/A   Clear
2:40 PM 59.0 °F - 37.4 °F 45% 29.96 in 10.0 mi WNW 28.8 mph 38.0 mph N/A   Clear
3:00 PM 60.8 °F - 37.4 °F 42% 29.95 in 10.0 mi WNW 26.5 mph 35.7 mph N/A   Clear
3:20 PM 59.0 °F - 37.4 °F 45% 29.95 in 10.0 mi West 27.6 mph 39.1 mph N/A   Clear
3:40 PM 59.0 °F - 37.4 °F 45% 29.95 in 10.0 mi West 32.2 mph 41.4 mph N/A   Clear
4:00 PM 59.0 °F - 37.4 °F 45% 29.95 in 10.0 mi WNW 32.2 mph 40.3 mph N/A   Clear
4:20 PM 59.0 °F - 37.4 °F 45% 29.94 in 10.0 mi West 32.2 mph 40.3 mph N/A   Clear
4:40 PM 60.8 °F - 37.4 °F 42% 29.94 in 10.0 mi WNW 28.8 mph 36.8 mph N/A   Clear
5:00 PM 59.0 °F - 37.4 °F 45% 29.93 in 10.0 mi WNW 32.2 mph 39.1 mph N/A   Clear
5:20 PM 59.0 °F - 35.6 °F 42% 29.92 in 10.0 mi WNW 32.2 mph 43.7 mph N/A   Clear
5:40 PM 59.0 °F - 37.4 °F 45% 29.92 in 10.0 mi WNW 33.4 mph 41.4 mph N/A   Clear
6:00 PM 57.2 °F - 37.4 °F 48% 29.92 in 10.0 mi West 32.2 mph 42.6 mph N/A   Clear
6:20 PM 55.4 °F - 37.4 °F 51% 29.92 in 10.0 mi West 33.4 mph 43.7 mph N/A   Clear
6:40 PM 55.4 °F - 37.4 °F 51% 29.92 in 10.0 mi West 36.8 mph 48.3 mph N/A   Clear
7:00 PM 55.4 °F - 37.4 °F 51% 29.92 in 10.0 mi West 29.9 mph 47.2 mph N/A   Clear
7:20 PM 53.6 °F - 37.4 °F 54% 29.91 in 10.0 mi WNW 36.8 mph 43.7 mph N/A   Clear
7:40 PM 53.6 °F - 35.6 °F 51% 29.90 in 10.0 mi WNW 33.4 mph 50.6 mph N/A   Clear
8:00 PM 51.8 °F - 37.4 °F 58% 29.88 in 10.0 mi WNW 46.0 mph 55.2 mph N/A   Clear
8:20 PM 51.8 °F - 37.4 °F 58% 29.88 in 10.0 mi NW 40.3 mph 51.8 mph N/A   Clear
8:40 PM 51.8 °F - 37.4 °F 58% 29.92 in 10.0 mi NW 35.7 mph 50.6 mph N/A   Clear
9:00 PM 51.8 °F - 37.4 °F 58% 29.91 in 10.0 mi NW 42.6 mph 54.1 mph N/A   Clear
9:20 PM 51.8 °F - 37.4 °F 58% 29.92 in 10.0 mi NW 36.8 mph 56.4 mph N/A   Clear
9:40 PM 51.8 °F - 37.4 °F 58% 29.92 in 10.0 mi NW 38.0 mph 49.5 mph N/A   Clear
10:00 PM 53.6 °F - 37.4 °F 54% 29.93 in 10.0 mi NW 38.0 mph 50.6 mph N/A   Clear
10:20 PM 51.8 °F - 37.4 °F 58% 29.92 in 10.0 mi NW 41.4 mph 49.5 mph N/A   Clear
10:40 PM 51.8 °F - 37.4 °F 58% 29.92 in 10.0 mi WNW 36.8 mph 50.6 mph N/A   Clear
11:00 PM 51.8 °F - 37.4 °F 58% 29.92 in 10.0 mi WNW 33.4 mph 48.3 mph N/A   Clear
11:20 PM 51.8 °F - 37.4 °F 58% 29.93 in 10.0 mi NW 26.5 mph 41.4 mph N/A   Clear
11:40 PM 53.6 °F - 33.8 °F 47% 29.95 in 10.0 mi NW 18.4 mph 26.5 mph N/A   Clear